Погода в Горицах

Россия / Тверская область     56°51′45″N   31°52′21″E
темп.,
°C
ветер,
м/с
пор.,
м/с
влажн.,
%
обл.,
%
осадки,
мм/ч
давл.,
гПа
погр.,
м
18 мая, ср
ср1800:00+4с51190100 0.0 1015613
03:00+4ссз41093100 0.0 1017600
06:00+3ссз4988100 0.0 1018563
09:00+5ссз5975100 0.0 1020695
12:00+10ссз5853100 0.0 10201301
15:00+12сз584791 0.0 10191707
18:00+12сз485678 0.0 10181537
21:00+8зсз38745 0.0 1019181
19 мая, чт
чт1900:00+5з312815 0.0 1018250
03:00+4з312865 0.0 1018329
06:00+4з31079100 0.0 1018364
09:00+8зсз3662100 0.0 1018661
12:00+12зсз465298 0.0 10181057
15:00+13сз5854100 0.0 10171636
18:00+11ссз2574100 0.4 1017794
21:00+7с118910 0.5 101929
20 мая, пт
пт2000:00+4ссв26960 0.0 1020111
03:00+1св23851 0.0 102152
06:00+2в2483100 0.0 1022106
09:00+7вюв2362100 0.0 1021520
12:00+10юв2250100 0.0 10201065
15:00+10ююв1248100 0.0 10181239
18:00+9юв1360100 0.0 10161092
21:00+6вюв2687100 0.4 1015182
21 мая, сб
сб2100:00+4всв2592100 0.0 1014116
03:00+3всв3791100 0.0 1014159
06:00+3всв388394 0.0 1015222
09:00+10в46470 0.0 10141105
12:00+13в45355 0.0 10131800
15:00+14в33335 0.0 10112107
18:00+14в233679 0.0 10112153
21:00+8всв246495 0.0 101186
22 мая, вс
вс2200:00+5всв397349 0.0 1011181
03:00+3в387831 0.0 1012149
06:00+4в38775 0.0 1012204
09:00+10в45510 0.0 1012728
12:00+13всв333654 0.0 10112160
15:00+14ссв443159 0.0 10112478
18:00+13с44375 0.0 10122194
21:00+7с36643 0.0 1013100